Theta_e
297 291 290 290 292 292 292 294 295 294 292 290 289 288 286 286 286 285 286 288 289 290 288 289 289 289 291 293 295 296 290 291 291 292 293 293 293 294 294 297 300 303 306 310 312 314 314 316 319 320 321 321 322 323 323 324 324 325 326 325 325 327 328 328 328 329 329 328 328 329 328 328 329 328 329 328 328 328 327 327 327 326 326 325 324 323
295 289 290 294 294 294 293 293 292 290 290 290 287 287 286 285 287 286 289 289 287 290 286 286 287 289 290 292 294 294 289 291 292 292 293 293 293 293 293 294 296 299 301 302 304 305 311 314 316 318 319 318 319 320 322 323 324 325 325 325 326 327 326 327 328 329 329 330 329 328 328 329 329 329 327 327 328 328 328 327 327 327 327 327 325 324
290 289 291 293 294 294 293 290 289 290 288 288 288 286 286 286 285 286 286 288 288 289 287 285 286 289 290 291 294 294 292 293 293 294 295 295 294 293 293 293 294 295 296 297 299 302 305 310 313 316 318 319 321 322 322 323 323 324 324 325 325 326 326 326 327 328 328 330 331 331 330 330 329 331 331 331 330 329 329 328 328 329 328 327 327 326
287 290 292 293 293 293 289 288 287 288 288 286 285 285 287 286 287 286 286 288 289 288 286 285 284 288 289 290 291 293 293 293 294 293 294 294 295 295 295 296 295 295 295 296 297 297 300 305 309 312 315 317 319 320 321 322 322 323 323 325 325 325 326 326 326 325 329 330 331 332 331 332 331 330 331 331 331 330 329 328 328 328 329 328 328 327
291 293 293 293 293 292 290 287 287 287 287 286 287 285 284 283 285 288 286 286 286 287 287 286 287 288 289 290 292 293 292 292 294 292 292 293 293 295 296 295 296 296 296 297 297 297 296 299 303 307 312 316 317 319 320 321 322 322 323 324 324 325 325 326 325 325 327 327 326 328 326 325 327 324 327 328 328 329 328 328 327 328 328 329 328 328
291 294 294 292 289 290 289 286 287 288 285 286 285 286 284 284 286 285 286 287 283 283 285 287 282 284 288 290 291 294 291 289 289 291 291 293 293 293 293 294 296 296 297 297 298 299 297 298 300 303 307 311 315 317 319 321 322 323 323 323 324 325 325 325 326 326 325 325 326 324 324 321 322 323 323 323 324 326 326 326 329 328 328 328 328 328
294 291 293 291 290 289 290 289 287 289 286 285 286 287 285 285 286 285 285 286 280 280 284 285 283 282 281 285 287 289 290 291 290 289 291 291 291 292 293 295 295 296 296 297 297 297 296 296 297 298 302 307 311 315 318 320 321 322 323 323 323 324 324 325 325 325 323 325 325 325 325 325 324 323 325 326 328 328 329 329 328 328 328 328 328 328
292 290 293 292 290 289 288 287 287 290 286 284 286 288 286 286 287 287 287 286 282 284 285 284 284 280 281 287 287 286 286 288 288 289 290 292 292 291 292 294 295 296 296 297 297 297 297 296 296 297 299 303 307 311 315 318 320 320 321 322 323 323 322 324 325 324 324 324 325 325 325 325 325 325 326 327 327 329 328 328 327 327 327 327 328 328
293 287 291 289 290 289 288 291 290 291 288 284 285 288 287 288 287 288 289 286 285 284 282 284 285 282 281 283 285 286 289 289 289 289 291 291 292 292 293 293 294 295 296 296 297 297 297 296 296 297 298 300 304 308 312 315 318 320 321 321 322 323 323 323 324 323 323 323 324 324 325 324 324 326 326 325 325 326 327 327 327 326 326 326 327 328
292 292 292 293 291 289 291 289 289 292 288 287 284 287 287 287 286 288 285 287 285 282 280 282 283 281 283 284 287 284 285 289 292 292 291 292 293 292 292 293 294 294 294 294 295 296 297 297 297 297 296 297 300 304 309 313 315 317 319 320 320 321 322 323 323 323 323 323 322 324 324 323 324 323 322 322 321 323 325 327 326 326 326 326 326 327
288 291 294 292 290 289 285 285 289 291 288 287 288 287 284 284 284 282 283 284 284 279 281 283 283 283 281 284 287 286 288 291 290 290 290 290 292 292 291 292 293 293 292 293 293 293 294 294 294 293 295 296 296 302 307 310 312 315 317 319 319 320 322 322 322 322 322 323 323 323 323 323 323 322 322 320 320 321 322 325 326 326 326 326 326 326
287 289 290 289 288 286 290 287 286 286 288 290 284 283 285 282 282 282 281 283 279 279 280 281 284 283 280 282 286 291 289 288 292 290 292 293 293 295 294 291 290 290 290 290 290 291 292 292 292 292 293 294 295 298 303 308 310 312 315 317 318 319 320 321 322 322 323 323 323 323 323 323 324 323 322 321 321 321 322 324 324 325 326 325 326 326
285 285 286 288 290 290 287 288 284 285 286 288 285 286 282 276 277 276 279 276 278 277 279 278 278 280 282 285 282 284 288 288 287 291 293 293 293 293 294 289 288 287 288 290 292 292 292 292 292 292 293 293 293 295 299 305 308 311 313 315 316 317 319 320 321 321 322 322 322 323 323 323 324 323 323 322 322 322 322 323 324 323 323 324 323 323
284 285 284 286 288 288 291 286 281 282 284 286 286 282 280 274 273 274 276 270 271 276 277 278 280 279 286 285 286 291 291 290 291 290 290 290 291 291 290 289 288 289 289 291 292 292 293 293 293 292 293 293 294 295 297 301 305 308 311 313 315 316 317 319 320 321 321 322 322 323 323 324 323 323 323 323 323 322 322 323 323 323 324 324 324 324
281 279 285 285 283 286 291 290 287 285 285 288 290 288 285 281 273 273 272 275 276 277 275 277 277 277 278 284 285 288 290 288 287 286 287 287 288 289 288 287 288 289 290 290 290 292 293 294 293 293 293 294 294 295 295 298 302 306 308 311 312 314 315 317 318 320 320 321 322 322 323 323 323 323 323 323 323 322 321 321 322 322 323 324 324 325
285 285 283 286 286 289 289 288 289 287 286 285 283 284 280 283 280 274 268 274 271 272 271 274 279 280 285 285 288 287 286 287 288 288 286 289 289 288 288 289 290 291 292 292 292 292 292 293 293 293 294 294 294 295 295 296 299 303 306 308 311 313 313 315 315 318 320 321 322 321 321 322 322 321 322 321 320 320 321 320 321 321 321 323 324 324
285 283 282 285 284 289 289 288 288 291 281 284 284 284 286 284 281 274 273 274 272 270 276 273 278 282 282 288 292 294 288 289 287 286 286 287 288 288 289 290 290 291 291 292 293 293 293 292 291 291 293 293 293 294 295 296 298 301 303 305 307 309 310 312 313 317 318 319 319 319 321 321 320 320 320 320 319 319 319 320 320 320 319 320 322 322
285 281 282 283 283 285 283 289 289 288 288 284 280 286 286 286 283 280 274 269 269 270 274 272 279 281 279 281 282 284 287 289 289 290 289 287 286 287 290 291 291 291 291 290 291 292 292 292 292 293 294 295 296 295 295 296 296 298 301 303 305 306 308 309 311 314 315 316 317 318 319 320 321 321 321 320 319 319 318 317 318 318 316 317 319 320
288 278 283 282 283 286 286 288 287 287 287 288 286 289 288 279 280 278 273 270 267 268 269 270 274 276 280 284 283 284 285 287 289 290 289 287 287 288 288 289 289 289 289 290 291 291 292 292 293 294 295 296 296 296 296 297 296 294 295 297 302 305 306 308 308 309 311 314 317 318 318 319 319 320 320 319 319 318 318 317 317 316 317 317 317 315
288 280 278 283 283 284 285 288 281 285 286 285 285 287 285 283 282 276 279 271 274 270 267 272 268 280 282 282 285 289 284 284 287 287 290 291 289 288 288 289 289 289 289 289 290 291 291 294 294 295 295 296 296 296 296 297 297 295 293 295 297 299 301 303 305 308 311 312 315 316 317 317 319 318 319 318 318 317 317 317 316 316 315 315 314 316
285 282 274 282 283 284 281 283 284 286 282 282 284 283 283 282 283 282 277 277 277 266 265 269 270 277 280 283 286 289 291 291 290 292 292 290 288 287 287 288 288 288 289 289 289 290 291 295 295 295 296 296 296 297 296 296 297 297 295 295 297 299 300 302 305 307 310 312 313 314 314 315 316 317 318 317 318 317 317 316 315 315 315 313 312 312
283 282 279 280 279 280 280 284 283 286 288 286 286 283 286 283 278 279 278 276 270 274 270 266 275 282 281 282 289 288 291 291 292 292 292 292 286 286 287 286 286 287 287 287 289 289 291 293 296 296 295 296 297 298 298 297 297 297 297 297 298 300 301 303 304 306 308 309 311 312 313 313 314 314 314 315 315 314 314 313 313 311 309 309 306 308
284 283 283 276 279 282 283 284 281 281 286 285 286 285 285 285 281 275 276 276 273 273 271 269 267 281 286 287 287 289 290 291 285 284 289 287 284 284 285 285 285 285 287 288 289 290 292 295 296 295 296 297 297 297 297 297 299 299 299 299 300 301 302 305 305 307 308 309 310 310 311 311 311 312 312 312 311 310 309 308 306 306 306 303 301 302
291 282 280 279 282 281 282 282 283 282 285 285 285 285 284 284 286 282 278 276 280 272 274 272 270 282 285 282 285 284 284 283 281 283 286 286 285 285 284 287 289 287 288 289 289 291 294 294 293 294 295 295 296 297 299 299 299 300 300 301 301 302 304 305 306 307 308 309 309 309 308 309 308 308 308 308 306 305 303 303 302 302 302 301 301 300
287 283 284 275 273 277 281 283 284 284 284 285 286 286 285 286 285 277 276 274 275 277 279 276 275 282 286 282 282 282 284 286 287 285 283 286 287 286 285 287 288 287 286 287 289 291 291 291 292 296 297 297 297 297 297 299 300 300 300 301 302 303 304 305 306 307 307 305 305 304 304 304 304 305 304 302 301 300 300 300 300 299 299 299 299 298
281 284 284 278 274 273 271 274 277 280 282 280 278 282 284 285 284 280 279 275 278 276 278 278 280 286 284 282 286 284 283 285 286 283 282 283 284 286 286 287 287 287 288 287 288 289 291 293 293 293 294 297 296 297 297 298 299 299 299 301 301 302 301 302 301 303 302 302 302 301 301 301 301 301 301 300 299 299 298 298 299 298 298 299 297 296
281 285 286 285 282 280 282 281 284 286 283 281 281 283 283 284 284 284 280 277 279 280 278 283 285 286 283 285 283 285 281 285 287 284 284 284 283 284 284 285 286 287 288 289 289 290 291 291 292 294 295 296 294 293 295 296 297 296 297 298 298 299 299 300 301 301 301 300 300 299 299 300 300 299 298 298 297 297 297 297 297 297 297 296 296 295
282 285 285 285 285 286 281 281 285 288 284 284 282 282 283 283 283 284 283 282 284 278 277 284 286 284 286 283 282 283 283 282 283 282 283 282 283 283 285 285 288 287 287 286 287 288 290 292 292 291 293 293 294 292 291 293 296 297 297 297 295 296 298 298 299 299 299 299 299 299 298 297 297 297 296 296 296 296 296 296 295 295 294 294 294 293
286 285 286 285 285 285 281 284 286 287 287 286 286 284 283 284 283 283 284 287 284 283 282 287 286 284 287 286 290 289 287 286 286 286 285 284 283 284 286 288 289 289 289 289 291 290 290 291 292 291 292 292 291 291 291 292 293 293 294 295 295 295 297 297 298 298 298 298 297 295 295 294 294 295 295 294 295 294 294 293 293 292 292 292 292 292
288 286 285 285 285 283 281 283 285 286 284 285 285 284 285 284 284 285 286 287 286 285 288 288 285 285 289 285 288 291 289 287 284 281 281 283 284 285 286 287 288 289 289 291 292 292 291 291 291 292 292 291 291 291 291 292 294 295 295 295 294 295 294 297 297 297 297 296 294 293 293 293 293 294 294 294 293 292 291 291 291 291 291 291 290 290
290 285 287 283 281 279 281 282 283 285 284 283 285 285 285 285 286 286 287 287 287 286 287 286 283 283 286 284 286 283 279 281 282 284 287 286 283 284 286 287 289 289 290 290 291 291 291 291 290 289 290 291 291 292 293 294 295 295 295 294 294 295 294 295 296 296 295 293 292 292 292 292 292 292 293 292 292 291 291 290 290 290 289 289 288 288
290 280 283 283 282 277 279 281 281 282 283 283 283 283 284 284 283 285 285 287 285 284 285 285 284 285 287 282 283 283 284 284 287 288 287 286 284 284 286 288 288 289 289 290 291 291 291 291 290 290 290 290 291 292 293 294 295 294 294 294 294 293 292 294 295 295 293 291 291 291 292 291 292 291 291 290 290 290 290 290 289 288 288 287 287 286
288 281 281 283 282 278 277 279 280 281 281 278 281 284 285 286 287 287 288 288 288 289 285 283 284 289 285 288 286 285 284 286 287 287 286 285 286 285 286 288 288 288 289 289 290 290 292 292 292 291 290 290 291 292 293 295 295 295 295 293 293 291 292 292 293 293 291 291 291 291 291 291 291 291 290 290 289 289 289 288 288 287 287 286 286 286
286 285 282 286 282 275 276 279 282 281 276 278 289 291 289 286 286 285 286 287 288 288 288 290 290 286 287 285 289 288 286 287 290 290 290 292 291 286 285 286 287 288 288 288 289 291 292 291 290 291 291 291 292 293 293 294 295 295 293 292 291 291 292 292 292 292 291 290 291 291 291 291 291 290 290 288 288 288 288 287 287 287 286 285 285 285
287 286 281 282 281 276 278 281 280 276 277 288 287 291 290 289 289 288 288 289 289 289 290 290 289 285 286 289 290 290 290 290 288 288 288 287 288 288 287 287 287 288 289 289 289 290 291 291 290 290 289 290 290 289 291 292 293 292 292 291 291 292 292 292 292 291 290 290 290 290 290 290 290 289 288 287 287 287 287 287 286 285 284 284 284 284
286 286 282 277 279 278 278 280 274 276 285 285 283 285 290 291 290 288 286 289 290 289 289 289 290 289 286 288 289 290 290 290 286 286 287 287 286 288 286 288 288 287 288 289 290 290 290 290 291 291 291 289 288 288 290 292 292 292 291 290 292 291 292 292 291 291 290 290 290 290 290 290 289 288 287 287 287 287 286 285 285 284 283 283 283 283
290 287 285 279 277 277 278 280 280 283 280 283 285 283 286 286 286 285 282 286 289 289 288 290 291 291 287 286 285 286 286 287 286 292 289 286 286 286 289 290 291 290 290 291 289 289 290 290 291 290 288 287 288 288 289 289 290 291 290 290 291 291 291 291 291 291 290 290 290 290 290 289 288 287 287 286 286 286 285 284 284 283 283 282 282 282
291 286 286 283 277 279 278 274 274 275 276 282 288 289 289 287 289 289 286 286 290 291 292 291 290 290 290 288 285 284 286 287 287 291 290 286 288 290 288 290 291 292 290 287 286 287 287 287 286 286 288 287 287 288 287 288 290 291 290 290 290 290 290 290 291 291 290 290 289 289 289 289 288 287 286 286 286 285 285 284 283 282 283 282 282 282
288 289 288 286 281 278 278 277 277 275 279 287 284 287 289 287 289 288 282 281 291 291 291 291 291 291 290 289 288 285 286 286 288 291 293 291 292 291 292 291 290 289 286 286 288 288 287 287 287 286 286 286 287 286 287 288 290 290 290 290 290 290 291 291 291 290 290 290 289 289 289 288 287 287 286 286 285 284 283 283 282 281 281 282 282 281
287 286 287 282 278 282 281 278 278 281 282 283 284 284 287 289 291 287 274 281 289 290 291 291 291 291 290 290 289 288 288 286 289 292 295 296 295 293 292 294 292 287 286 285 284 285 285 285 285 285 286 286 287 286 286 288 289 289 290 290 290 290 291 291 292 291 291 290 288 288 287 287 286 286 286 285 284 283 283 282 281 280 280 280 280 279
284 281 286 282 282 282 283 278 274 279 285 279 280 286 288 292 290 280 276 286 287 289 291 292 291 292 292 290 289 287 290 294 295 293 288 288 289 289 288 288 290 289 288 286 285 284 284 285 287 287 287 287 286 285 286 287 288 289 289 289 289 290 292 292 291 290 289 288 287 286 286 286 286 285 285 285 283 282 281 281 280 279 279 278 278 278
279 281 276 282 282 281 282 280 279 283 283 284 281 287 290 288 278 281 288 282 284 284 286 290 291 290 290 290 290 292 293 294 288 285 287 288 290 291 289 287 285 283 282 282 283 284 284 284 284 284 284 283 284 285 285 287 287 288 288 288 288 290 290 289 288 288 287 286 286 285 285 285 285 285 284 282 281 280 279 279 279 279 278 278 277 277
284 283 281 282 282 277 276 278 272 275 286 288 284 284 286 287 285 284 283 282 281 282 287 287 288 289 290 290 291 292 293 289 289 289 286 286 288 287 286 285 286 286 284 283 283 282 284 284 284 283 282 282 283 284 285 286 286 286 286 287 288 286 285 286 285 285 285 285 284 284 283 283 282 282 281 280 281 280 278 278 278 277 277 277 276 276
289 283 282 283 285 280 281 278 280 286 285 289 288 286 287 285 285 285 288 286 281 282 285 287 287 288 290 291 290 290 290 287 287 287 288 285 284 283 283 283 284 283 282 281 282 283 282 283 282 282 280 281 282 283 284 286 286 286 285 286 281 281 282 283 283 284 283 283 283 282 281 281 280 280 280 280 280 279 278 277 277 277 277 277 276 276
287 287 288 284 287 285 283 286 285 282 288 290 292 292 292 292 285 281 284 288 286 284 284 285 288 287 288 290 289 289 288 288 290 287 288 289 286 284 284 284 284 284 283 283 282 281 282 284 282 281 279 280 281 282 283 285 286 284 284 281 278 279 279 279 280 281 281 281 280 279 279 279 279 279 279 279 279 278 277 277 276 276 276 276 276 276
288 286 285 285 285 283 283 282 281 280 282 288 286 283 293 293 284 281 283 285 285 286 286 288 286 287 286 286 288 285 288 288 288 286 286 285 284 283 282 281 280 279 280 280 279 281 281 280 280 280 280 278 279 281 282 283 284 284 283 277 278 278 279 278 278 278 278 277 277 277 276 276 276 276 277 277 278 278 278 277 277 277 276 276 276 276
284 284 284 282 280 286 283 288 282 282 283 284 290 283 285 290 289 283 282 283 283 284 286 284 285 286 287 286 289 288 288 286 286 286 285 284 285 284 283 282 281 280 280 281 280 279 279 280 280 280 279 280 278 279 279 279 279 280 277 276 277 278 278 278 278 278 276 276 276 275 275 276 276 275 275 276 277 277 277 277 278 277 276 276 275 275
283 282 289 279 283 286 287 283 282 283 286 288 288 287 286 287 284 281 281 280 280 282 284 283 283 283 283 285 287 287 285 284 285 285 285 286 287 285 283 282 280 279 277 277 277 278 277 279 280 279 278 279 278 278 278 278 278 275 276 276 276 276 276 277 277 277 276 276 275 275 275 276 274 275 275 276 276 276 276 277 277 277 276 276 276 275
283 286 285 281 283 284 284 281 285 284 284 285 286 283 284 286 288 285 282 281 281 283 283 281 281 283 285 286 285 283 282 283 285 286 285 285 284 284 283 281 279 279 277 277 276 277 280 279 278 277 277 277 276 276 276 275 273 273 275 275 275 276 277 277 276 276 276 275 274 274 274 275 275 275 276 275 275 276 277 277 277 277 277 277 277 278
286 285 286 285 284 284 285 288 284 283 282 285 284 286 286 284 286 288 284 283 283 284 283 284 282 280 282 282 284 284 286 284 283 283 284 284 284 282 280 279 278 277 276 275 275 275 275 275 276 276 276 275 275 275 275 272 272 273 275 275 275 276 277 276 275 275 275 274 274 274 273 274 274 274 275 275 275 274 273 275 277 276 276 276 277 279
288 288 287 285 286 285 289 285 288 289 286 286 289 287 287 286 286 288 287 287 286 286 285 285 283 281 281 281 279 285 284 283 282 281 281 281 280 280 280 279 278 277 277 275 275 274 275 274 273 274 274 273 273 274 273 272 272 272 273 274 275 276 277 276 275 275 274 273 274 274 274 274 274 273 274 274 274 274 274 274 274 278 279 278 278 279
Wind_Speed
4 9 11 12 9 10 9 11 10 7 5 1 2 3 4 5 5 4 4 3 1 0 7 9 8 8 9 13 13 11 2 3 5 7 8 7 8 8 9 10 11 10 16 5 7 9 8 10 10 10 9 9 9 9 10 12 13 13 13 11 13 13 11 9 9 10 11 12 11 10 12 12 9 9 8 8 8 7 6 8 10 9 8 7 8 7
3 9 13 10 9 13 12 10 7 4 3 5 3 3 4 3 8 4 1 2 4 3 4 1 6 11 13 12 13 10 3 8 9 10 10 11 10 9 8 10 11 15 5 4 7 6 7 9 10 10 10 10 12 12 13 15 16 15 14 15 14 11 12 13 12 10 10 10 10 9 9 9 8 8 9 8 7 8 7 8 9 9 9 9 8 8
9 14 7 7 7 7 6 6 6 9 5 3 5 3 2 7 3 8 5 2 1 2 9 3 5 10 11 12 14 13 10 8 9 10 11 11 9 8 8 10 12 9 12 6 11 7 9 9 10 10 11 11 14 14 16 16 13 13 13 14 13 12 12 12 12 12 12 11 11 11 9 10 7 7 8 8 7 8 9 9 10 10 9 8 8 9
8 9 8 8 7 8 4 5 6 4 3 5 3 5 9 2 3 7 4 0 0 3 2 1 4 10 10 9 14 14 9 9 11 10 11 8 10 10 13 12 9 10 11 13 14 13 10 11 10 9 10 13 13 13 12 12 13 12 14 14 14 13 12 12 13 13 12 12 11 11 10 9 9 7 7 9 8 9 10 11 10 9 8 8 8 9
12 8 10 12 12 13 12 7 8 8 8 2 7 5 4 2 4 7 4 2 2 1 1 4 9 12 10 12 11 9 7 8 11 7 8 9 8 11 7 5 8 13 13 12 13 10 9 10 13 16 16 11 12 14 14 14 14 12 17 16 15 15 14 14 14 14 11 9 8 8 6 6 6 4 6 8 9 10 9 8 9 9 9 9 8 8
5 10 10 12 5 5 6 6 9 9 7 3 3 7 7 6 6 2 3 2 3 3 0 2 6 12 7 14 14 11 5 6 6 8 9 11 9 9 10 13 12 10 11 13 14 12 8 12 11 10 9 12 14 14 15 14 16 15 14 14 14 12 12 14 15 14 11 11 11 10 10 10 10 10 10 11 12 10 9 9 7 8 9 9 9 9
6 4 12 15 13 11 11 10 7 9 7 6 8 9 7 7 4 3 1 1 2 4 2 2 10 10 3 6 7 8 10 14 6 5 8 7 8 8 11 12 13 12 13 11 12 10 7 11 10 12 13 15 15 16 13 12 14 15 14 13 14 14 13 13 13 14 12 12 12 14 13 10 11 12 8 9 8 8 7 7 8 8 9 10 10 9
7 11 11 7 8 10 9 10 8 13 9 8 3 12 6 4 3 3 1 2 4 2 4 2 3 7 11 9 4 6 8 9 9 10 10 12 10 11 11 13 13 13 13 13 13 13 11 9 12 15 17 14 16 14 10 13 12 14 16 15 15 13 12 12 12 13 14 13 13 13 13 13 13 13 12 11 9 8 7 8 9 8 8 9 10 9
17 7 12 13 11 10 13 16 11 14 10 3 4 12 8 7 5 3 1 3 1 4 9 1 1 5 8 4 5 5 12 10 11 12 12 11 11 11 12 14 14 15 14 10 10 12 12 13 14 14 13 14 12 10 13 14 14 13 13 13 12 13 12 11 13 13 14 13 13 13 12 13 11 11 10 8 8 8 8 10 8 8 8 9 10 10
2 15 20 20 15 15 10 6 12 14 8 2 5 5 6 5 3 2 2 2 2 1 13 2 1 5 17 5 6 2 4 15 16 14 12 11 11 11 11 12 14 13 9 7 10 12 11 10 11 9 6 4 11 10 9 9 9 9 10 12 13 14 12 11 13 13 14 14 12 12 13 14 12 9 7 8 8 9 9 10 10 9 9 9 9 9
1 4 6 7 12 3 6 2 6 10 4 8 6 8 5 5 3 3 2 2 1 10 10 6 6 5 14 6 11 7 12 14 8 5 7 7 10 11 10 11 11 10 8 7 8 10 10 6 6 5 11 11 5 7 9 10 11 10 11 13 14 16 12 12 13 13 15 14 13 13 14 15 14 12 11 9 9 8 9 10 10 9 9 9 9 9
3 5 7 3 3 4 8 6 6 2 10 10 3 6 7 4 2 3 2 1 4 11 1 4 8 8 11 1 6 8 3 4 12 11 12 13 13 13 10 10 10 9 7 6 6 9 8 7 7 5 10 9 9 6 10 11 10 11 12 12 15 14 14 12 13 14 14 13 14 14 14 14 14 13 11 13 13 12 12 11 10 8 8 8 8 9
3 5 1 2 4 11 6 11 1 2 4 6 7 7 8 2 2 3 1 3 10 8 0 3 3 1 22 4 3 3 10 9 6 8 12 13 13 12 12 8 5 4 5 6 7 7 7 8 8 8 10 7 9 11 11 11 10 11 11 13 14 15 14 14 14 15 15 14 15 14 14 14 12 13 13 13 12 11 11 10 9 9 9 8 7 8
0 1 0 3 2 5 12 13 5 5 4 9 9 8 7 3 4 5 5 1 5 4 4 1 1 8 12 6 10 11 14 12 11 12 12 8 8 9 7 4 4 5 6 7 7 7 8 7 7 8 8 9 8 9 9 8 9 10 11 12 14 15 13 12 13 14 14 15 15 14 14 13 12 13 13 11 11 10 10 9 10 10 10 9 10 9
9 1 9 10 7 4 9 9 13 8 11 12 8 13 12 10 6 8 7 11 9 6 1 4 3 9 4 4 1 8 7 7 6 5 5 7 9 10 6 4 8 9 9 8 8 9 9 8 8 7 8 7 8 7 8 7 8 8 10 11 13 11 10 12 13 12 14 13 13 12 12 12 10 11 10 10 9 9 10 9 10 9 9 9 9 9
16 6 3 2 2 12 14 6 9 13 9 4 5 4 2 10 4 5 4 3 2 2 1 3 9 3 6 4 9 6 6 8 7 8 4 10 9 4 7 8 10 10 10 7 8 8 9 8 6 6 6 7 7 7 7 8 8 8 9 9 10 11 10 11 12 12 13 13 11 12 12 12 11 9 8 8 7 7 9 10 10 10 9 9 8 8
6 9 1 0 5 13 8 6 3 14 10 7 7 12 11 2 8 5 2 1 2 3 9 2 9 9 7 11 14 16 7 11 6 7 7 10 9 3 8 10 9 9 8 8 7 7 7 4 5 6 6 5 5 6 8 8 8 9 8 8 9 8 7 10 11 12 11 10 10 11 11 10 10 10 11 10 10 10 9 9 9 9 9 8 7 8
14 5 2 3 7 4 1 7 7 4 6 7 6 11 4 2 5 4 3 1 1 5 7 3 14 10 1 13 3 1 8 12 9 12 8 6 5 5 10 10 9 10 7 5 5 5 6 4 4 3 3 4 3 3 4 5 5 6 7 8 10 9 11 10 10 11 10 10 10 10 10 10 11 10 10 10 10 9 8 8 7 7 6 8 8 8
8 4 1 1 1 1 1 6 3 2 2 13 11 6 12 5 8 2 3 2 3 3 5 5 4 8 10 13 2 1 4 6 10 10 7 6 6 8 9 12 9 5 6 7 5 5 6 7 5 4 4 3 2 2 2 2 2 3 5 6 7 9 8 8 7 5 5 7 8 8 9 10 10 9 9 9 9 8 9 9 8 8 8 7 7 6
4 7 3 2 4 3 2 7 12 9 2 3 4 8 1 2 4 7 8 3 6 5 0 8 3 10 8 7 8 12 5 7 5 6 10 13 10 8 7 9 8 5 6 7 7 7 8 7 5 3 4 4 3 2 2 2 2 3 3 5 6 4 4 5 6 6 8 7 7 7 7 8 9 9 9 9 9 8 9 9 8 8 7 8 7 7
6 3 6 1 1 3 5 6 15 16 13 5 6 8 2 1 2 5 0 5 6 5 5 3 5 9 4 9 11 14 14 14 13 15 13 10 7 7 8 7 7 7 7 6 7 7 7 5 3 2 2 2 3 3 2 1 3 3 2 2 3 6 6 7 8 7 8 7 8 8 9 8 7 8 7 8 8 9 9 8 8 8 7 6 6 6
4 4 10 5 3 6 4 0 1 7 12 11 13 13 15 12 8 12 12 3 3 3 5 3 12 9 6 1 9 7 11 8 14 14 14 10 4 8 8 7 7 7 7 6 5 6 5 4 3 2 2 2 3 3 3 3 2 2 3 2 3 3 4 5 6 6 6 5 5 7 6 6 5 6 6 7 7 7 7 7 7 7 6 7 6 7
6 4 10 7 7 9 2 2 1 2 3 4 7 7 8 7 2 3 11 7 3 2 5 2 2 15 6 11 9 10 10 12 3 0 7 6 4 6 7 7 7 7 7 5 5 5 5 5 5 3 3 4 4 4 3 3 3 3 3 3 4 4 4 5 5 5 5 5 6 6 6 6 6 6 7 8 6 6 6 6 5 6 8 7 6 4
7 6 8 3 4 2 3 1 2 1 3 4 6 5 9 14 17 7 2 4 8 1 3 1 1 16 3 2 9 5 5 1 4 4 6 7 6 7 7 7 6 4 4 4 3 3 3 3 1 2 3 4 4 3 4 3 3 3 3 4 4 4 5 4 5 5 5 5 5 6 6 6 6 7 7 7 6 7 5 6 6 6 7 8 7 8
11 5 12 7 4 1 2 2 1 1 1 9 13 10 8 7 5 2 4 1 2 9 7 7 9 20 0 1 2 4 7 6 8 4 3 7 7 7 6 7 6 4 3 2 2 2 1 2 4 4 3 4 4 3 3 4 4 4 4 4 5 4 3 4 4 5 5 5 6 5 6 5 5 6 6 6 6 7 7 7 7 6 8 8 8 8
5 6 13 14 15 14 10 13 16 16 17 2 3 6 6 12 14 7 8 4 8 5 9 8 13 18 1 1 2 1 3 7 7 3 4 5 8 9 7 7 6 2 4 3 3 3 5 5 3 4 4 4 4 5 4 4 4 4 4 4 4 4 4 4 4 5 5 5 6 5 6 5 5 7 7 7 7 8 7 7 7 8 6 8 10 8
4 3 8 10 17 19 18 7 4 11 7 10 6 10 9 6 8 7 4 4 12 6 8 15 18 17 1 2 2 3 2 5 10 6 4 4 4 6 6 7 6 5 4 4 5 4 2 3 7 7 6 5 4 4 4 4 4 4 4 4 4 4 4 4 5 5 6 5 6 6 6 6 6 6 7 7 7 6 7 7 7 8 9 6 10 11
5 8 10 10 13 11 5 5 9 13 10 8 8 8 9 10 9 11 13 17 8 11 10 17 23 20 19 3 4 5 8 7 7 5 7 5 5 5 4 4 6 6 5 3 4 6 8 8 6 7 7 6 6 4 3 3 4 4 4 5 3 4 4 5 6 6 6 6 6 6 6 5 5 6 7 7 7 7 7 7 7 7 8 8 9 9
8 14 14 13 16 7 6 11 14 15 16 15 15 13 15 16 14 18 19 22 10 14 20 30 23 16 24 8 12 10 6 5 6 4 3 3 3 3 3 4 6 7 6 6 8 7 8 10 8 9 8 7 4 4 4 4 3 3 3 4 4 4 5 5 6 6 6 6 7 5 6 5 5 6 7 8 7 8 8 7 7 8 7 8 9 8
5 10 8 11 13 6 4 8 8 14 7 12 15 17 18 17 18 20 21 21 20 21 25 26 2 14 20 7 13 11 9 8 6 3 3 3 4 5 4 6 7 8 7 8 8 8 8 8 7 8 7 5 5 4 4 4 4 4 5 5 4 5 4 5 6 6 6 6 6 5 6 6 6 7 7 8 8 7 8 8 8 8 8 8 9 9
13 11 14 8 7 5 5 2 5 11 12 11 12 14 14 17 20 23 23 25 24 21 20 17 8 14 9 6 6 2 2 1 3 7 9 9 5 6 7 7 9 8 8 8 7 8 8 8 7 5 6 7 7 8 8 7 6 5 5 5 5 5 5 4 6 6 7 6 6 6 7 7 7 7 8 7 8 7 9 8 8 8 9 8 8 9
14 3 6 7 10 5 0 6 5 3 8 12 10 10 14 18 20 23 22 20 10 13 19 17 16 21 9 8 2 3 1 3 9 11 10 7 7 7 9 10 9 9 10 10 10 8 9 9 8 9 10 10 9 9 8 8 8 8 8 7 7 6 5 5 6 7 6 7 7 6 7 7 8 7 8 8 8 8 8 9 9 9 9 9 9 7
11 7 9 11 13 6 0 6 9 8 6 1 9 19 27 27 22 15 15 16 20 23 18 15 23 17 7 12 8 7 9 9 9 9 8 8 9 10 12 12 10 9 9 8 9 10 11 11 12 11 9 8 11 12 13 10 10 10 9 9 7 6 6 6 6 7 7 7 7 7 7 7 9 8 8 8 8 8 8 9 10 10 9 9 8 9
8 11 8 9 9 5 5 7 7 8 13 15 21 26 23 22 22 19 21 23 17 12 18 21 19 5 8 7 14 11 11 9 13 15 13 12 12 10 9 8 9 9 7 6 8 10 9 6 6 9 11 13 12 12 11 11 11 8 7 7 7 8 7 7 6 7 8 7 7 8 8 8 9 9 9 8 8 8 9 9 9 9 8 9 8 11
16 12 6 3 9 10 8 8 8 13 15 16 4 10 12 13 16 23 22 21 20 20 20 17 12 9 8 12 11 11 12 13 8 8 10 10 7 8 10 11 11 11 11 10 10 10 9 8 6 6 7 10 10 8 9 9 7 8 8 8 9 7 8 6 8 6 7 8 7 8 8 9 9 10 9 9 8 8 8 9 9 9 9 9 10 10
13 12 7 3 5 6 6 10 11 17 8 3 1 4 14 18 22 17 19 22 20 16 16 17 20 14 9 11 10 8 10 9 5 7 12 8 5 7 6 9 11 9 10 12 12 11 9 10 13 13 13 6 7 9 10 10 8 9 9 7 8 7 7 8 7 7 7 8 8 8 8 9 9 9 10 10 9 9 9 8 10 10 8 8 7 6
18 11 9 5 0 10 9 15 12 3 4 5 2 7 15 19 17 20 17 23 12 10 15 20 23 16 12 9 6 6 3 1 6 16 7 7 8 10 13 12 11 13 14 11 7 9 10 10 10 7 4 6 9 10 10 8 8 8 8 9 9 9 8 8 9 9 9 9 9 9 8 8 10 10 10 9 10 9 9 10 9 8 9 10 8 9
11 15 7 13 3 4 9 5 1 4 11 13 26 10 6 3 9 8 6 16 10 21 22 21 22 19 17 9 7 4 3 1 12 18 9 8 12 14 13 14 15 14 9 5 4 4 4 4 4 4 8 9 10 9 9 10 10 10 10 10 8 10 9 10 10 10 10 9 9 9 8 8 9 10 9 9 10 10 8 8 7 7 8 11 11 10
2 6 12 13 6 5 5 8 8 12 19 19 4 11 12 9 16 13 4 10 21 19 19 22 24 19 18 15 12 7 6 11 18 16 7 12 15 16 17 17 16 8 5 7 9 8 6 7 8 8 8 10 11 10 10 11 12 11 11 10 10 10 11 12 11 11 12 10 9 9 9 8 8 9 10 9 9 9 10 9 9 7 7 7 8 8
11 9 9 7 6 8 10 10 13 9 16 6 10 6 16 15 16 10 2 15 19 18 21 19 23 21 17 17 15 15 15 16 19 15 18 20 18 11 13 17 10 7 8 6 4 5 8 8 9 8 9 11 9 9 11 11 11 11 11 11 10 11 13 14 11 8 8 9 9 9 9 8 8 8 10 10 9 8 9 8 8 9 9 7 6 8
12 5 12 15 14 14 15 7 4 9 8 5 6 13 14 18 14 10 17 21 9 13 17 23 24 23 22 19 17 14 19 22 23 13 2 4 6 7 6 5 7 7 9 9 8 6 7 7 8 10 10 8 8 10 10 10 11 11 10 10 10 14 12 7 7 9 8 8 9 9 9 8 8 10 8 8 10 9 8 8 10 9 10 10 7 8
4 5 4 4 10 13 14 16 12 10 5 9 6 16 18 12 10 27 11 3 9 6 8 11 17 12 11 15 15 18 19 23 2 5 4 6 9 8 9 6 3 3 3 2 6 7 6 6 5 4 4 5 8 10 10 10 11 10 9 10 13 11 5 7 7 8 9 9 9 8 8 9 7 8 9 8 10 11 9 7 8 9 10 9 10 12
21 17 18 17 8 5 7 7 1 8 15 23 12 3 6 18 10 4 4 1 1 5 11 9 9 9 13 14 18 21 20 6 7 6 2 4 2 3 6 7 7 7 6 5 4 3 6 6 6 5 5 6 7 8 9 10 11 9 8 12 10 5 6 7 7 8 8 8 9 9 9 8 10 9 8 10 10 12 11 9 10 9 10 11 11 12
13 13 9 6 9 13 15 12 15 19 7 26 25 18 13 5 4 8 9 4 3 6 8 8 9 9 13 14 17 15 10 5 1 5 7 5 3 2 3 3 3 3 3 1 3 7 5 5 5 6 5 6 7 8 8 11 11 9 10 10 5 7 7 8 8 8 8 8 8 9 8 9 9 8 9 11 11 11 12 11 10 10 10 10 11 11
9 18 18 22 16 15 17 18 1 3 11 12 17 10 14 15 6 5 2 7 8 6 4 5 10 8 11 13 10 12 9 9 11 7 8 9 7 6 6 7 6 6 6 6 4 5 5 7 8 6 5 5 7 7 8 8 10 9 11 6 7 8 9 8 9 9 9 9 8 9 8 8 8 9 9 10 11 12 11 11 11 11 8 10 9 10
9 5 8 5 7 3 5 3 2 1 2 10 1 1 18 16 4 3 4 5 4 7 11 8 8 10 9 6 9 5 10 11 11 7 8 4 4 4 2 4 4 3 4 4 4 6 5 5 6 7 7 5 5 6 6 6 7 11 7 7 7 8 9 10 10 10 10 9 8 9 9 9 7 8 9 10 9 10 11 13 13 12 11 10 10 10
4 5 4 4 2 10 13 14 5 3 0 6 13 3 4 9 9 6 3 4 3 6 7 1 6 8 11 11 12 13 12 8 9 9 6 5 6 7 7 6 5 7 8 8 6 7 6 6 7 7 6 7 4 4 4 5 4 4 7 9 8 8 9 10 10 10 9 9 8 8 9 11 9 8 8 8 8 7 9 9 10 10 11 11 11 11
5 3 10 3 9 15 15 4 5 7 10 14 13 9 7 7 3 4 2 1 1 2 4 4 5 5 5 7 11 9 7 6 9 8 8 9 9 6 7 7 7 5 3 3 6 5 5 5 5 6 5 5 5 5 5 5 5 5 7 7 8 8 9 9 9 10 9 10 8 8 9 9 10 11 9 10 10 10 9 9 10 12 14 15 14 14
4 9 9 6 7 6 2 3 11 7 9 11 10 5 1 3 9 7 4 3 3 5 4 3 1 5 9 8 6 5 5 8 9 10 9 8 6 6 6 6 6 6 7 7 6 6 7 6 5 5 6 5 5 5 5 5 4 5 8 8 8 9 10 9 8 8 8 8 7 8 7 7 9 9 9 9 8 8 9 11 12 12 9 7 9 13
10 13 9 10 11 11 19 21 14 11 9 8 7 11 9 8 8 10 6 3 4 5 5 7 1 1 4 4 7 8 9 8 7 6 9 8 7 5 5 6 6 6 6 4 5 5 4 5 6 6 6 4 5 5 5 5 4 4 5 7 8 8 10 9 8 7 8 7 7 7 7 7 7 7 7 8 9 8 4 2 4 4 7 8 8 5
15 15 14 15 17 21 17 8 14 10 3 7 15 13 11 8 7 11 13 12 9 7 9 9 6 1 3 5 4 8 7 6 7 5 4 4 4 5 6 8 9 7 7 7 7 5 5 4 5 5 5 5 5 5 5 5 5 5 5 6 7 8 8 9 8 7 6 7 7 8 8 7 8 7 7 7 8 8 8 6 3 4 4 5 3 3
Wind_Direction
135 167 189 197 180 170 172 184 191 209 199 170 103 147 200 201 274 279 268 256 261 177 230 224 235 237 243 243 247 265 143 242 263 265 246 246 240 235 234 230 234 239 238 240 216 218 200 201 204 205 202 207 202 202 198 202 205 204 204 194 205 206 200 198 199 196 194 198 203 207 206 211 206 204 200 203 202 200 200 205 212 211 208 197 195 190
139 187 206 188 173 172 178 185 174 138 152 182 159 163 237 170 243 233 232 357 319 182 288 274 225 239 240 243 247 250 144 237 231 235 244 245 236 238 237 241 233 235 270 274 256 220 202 205 199 195 200 196 200 207 202 207 207 205 201 203 209 200 200 202 200 199 202 203 202 197 205 207 209 202 199 205 196 198 197 196 206 210 209 201 194 194
190 208 176 166 165 170 177 153 159 177 166 148 162 168 199 253 256 283 260 290 302 91 264 295 255 257 247 246 254 252 231 235 225 216 229 231 243 242 239 245 248 255 255 245 249 224 208 204 201 197 201 204 209 208 208 211 207 206 207 211 207 205 200 203 201 202 208 206 206 204 206 204 207 202 203 208 201 190 198 198 203 209 205 200 201 199
193 220 167 155 142 162 161 151 142 121 119 144 103 151 219 222 154 274 283 332 237 167 268 353 310 277 270 254 255 258 233 240 236 226 236 221 231 232 230 228 237 249 256 250 242 233 205 201 201 202 205 207 205 212 212 208 207 208 213 212 208 207 202 203 204 206 209 206 205 208 208 204 203 202 197 203 201 202 206 207 201 197 199 202 205 202
191 149 157 157 178 173 174 167 156 165 199 220 178 181 164 158 230 207 253 328 294 317 54 317 293 280 254 262 262 251 235 232 249 242 245 253 239 247 271 300 227 235 234 241 252 246 201 198 205 202 206 199 205 210 209 203 204 208 210 207 204 205 203 204 202 202 201 193 198 203 201 193 200 179 194 200 209 208 204 204 198 199 192 198 205 203
158 169 146 151 132 142 132 158 191 158 196 202 233 176 182 173 191 269 347 15 11 331 323 176 295 255 233 237 239 250 247 222 250 241 239 241 238 249 255 250 251 245 240 233 238 240 206 208 216 216 205 202 211 211 211 203 207 208 211 208 206 208 207 206 201 196 189 196 197 189 191 196 196 203 198 202 206 199 197 199 186 190 191 198 203 204
173 167 152 171 162 170 178 187 194 162 178 166 237 172 166 153 123 99 357 66 286 246 274 71 225 272 344 273 245 241 243 242 252 258 266 248 241 238 236 245 247 240 247 242 248 250 212 214 211 214 210 209 210 216 204 201 210 209 211 206 205 208 209 204 199 188 190 198 201 202 203 197 196 206 211 209 209 207 201 188 193 193 192 196 200 205
154 173 174 143 150 157 173 195 201 168 140 213 211 162 148 142 149 209 142 144 244 259 270 136 182 273 277 254 249 247 259 270 280 275 264 258 242 234 235 241 245 243 237 240 237 239 231 223 208 214 214 208 214 212 190 208 207 204 207 203 205 207 208 202 195 190 192 198 200 202 207 207 212 211 213 200 205 198 185 190 193 190 194 195 199 200
151 151 169 165 174 173 195 204 166 165 160 223 183 143 168 166 196 191 182 248 222 26 280 96 305 301 240 262 233 190 258 255 251 249 247 241 241 232 231 236 241 243 239 232 243 245 232 228 224 225 218 214 214 200 201 205 204 205 205 205 205 209 206 202 194 193 196 200 198 201 203 209 215 212 213 197 190 192 184 193 190 188 189 193 198 199
199 180 181 172 165 196 202 129 156 163 127 286 125 79 97 90 74 149 173 252 325 10 263 172 148 254 276 215 182 306 226 245 235 227 234 240 238 229 228 233 239 247 248 228 234 245 245 237 240 242 265 242 217 212 207 210 203 203 199 202 203 210 204 200 198 196 197 199 198 202 206 210 210 204 200 186 193 194 187 196 190 188 189 191 195 199
166 14 113 141 198 181 93 65 142 160 111 132 115 83 47 47 67 33 68 119 309 257 259 174 192 175 290 181 190 170 224 221 244 242 256 263 258 255 234 231 234 240 241 237 241 250 255 258 258 238 229 233 230 206 200 205 203 198 196 199 202 208 202 198 198 194 199 197 199 205 205 207 208 201 196 195 195 189 189 198 193 191 193 191 194 194
81 119 152 239 94 140 110 84 6 96 140 139 100 124 94 8 24 41 354 63 200 254 19 184 175 159 237 307 232 209 312 219 201 221 228 231 233 234 241 229 235 238 239 250 258 261 260 271 257 244 244 234 226 205 207 209 200 196 198 195 203 205 201 197 196 196 201 197 202 207 206 208 209 200 198 202 201 194 194 195 194 190 188 191 191 194
65 170 252 32 292 141 139 110 348 69 175 109 107 95 115 229 64 248 90 243 220 231 241 353 301 13 241 220 213 271 254 254 236 228 221 223 229 233 239 242 248 267 259 248 248 252 255 244 245 235 240 236 226 217 212 208 200 199 197 195 198 206 199 197 193 198 198 198 202 203 206 209 205 204 203 204 205 195 197 193 191 185 192 186 185 190
293 276 194 193 94 260 147 150 149 135 201 136 147 145 121 152 178 215 207 332 321 285 275 333 133 261 277 309 211 221 234 218 219 224 235 234 236 245 253 262 256 243 234 246 244 253 254 243 238 233 234 228 228 228 220 213 205 199 200 197 200 209 195 195 196 198 199 204 204 203 205 207 202 207 204 205 204 197 196 191 193 190 191 190 192 191
150 217 234 165 210 194 171 161 166 143 157 182 174 173 188 172 164 198 177 194 214 201 202 285 94 234 110 239 262 247 292 309 272 271 259 242 247 256 270 297 286 271 256 235 238 237 241 238 227 227 225 228 226 224 222 214 212 202 203 199 205 205 196 193 197 197 203 206 205 203 205 206 203 205 203 204 201 191 191 192 193 196 193 194 196 194
194 186 316 172 292 156 178 176 141 135 143 188 164 73 111 226 121 153 204 156 170 160 343 214 214 198 191 270 287 227 261 292 280 259 268 265 252 274 298 268 254 250 254 246 229 241 247 239 235 231 229 226 221 221 220 218 209 206 208 203 205 205 195 193 195 201 203 205 202 202 202 204 201 200 198 198 192 192 190 189 192 194 193 198 196 199
173 211 328 6 77 167 170 129 180 148 163 192 120 200 206 103 93 101 55 18 86 48 246 147 292 274 300 282 253 266 248 257 273 302 275 263 265 249 259 255 249 256 255 254 244 243 246 254 239 231 231 222 216 213 213 217 211 207 200 197 202 205 197 196 200 202 202 203 199 203 202 197 196 193 194 194 192 191 188 187 193 190 194 193 191 193
169 151 339 108 167 222 358 170 166 196 131 89 177 204 87 110 111 133 202 358 71 184 259 113 236 264 63 275 340 304 246 256 260 238 247 274 299 280 256 258 252 248 254 274 267 260 265 256 250 247 234 235 229 234 251 241 230 228 212 201 199 199 201 204 198 200 198 196 198 197 197 197 195 195 196 193 192 187 180 186 185 182 177 190 191 187
125 85 204 306 111 16 64 102 91 334 332 174 186 163 147 206 220 258 95 229 183 227 262 281 270 275 201 242 324 40 175 237 253 280 284 261 253 256 265 267 273 279 277 265 256 257 258 244 238 206 208 197 208 249 267 274 210 233 228 222 211 206 209 201 196 194 194 192 194 192 192 192 193 194 194 194 186 176 182 185 183 184 189 184 178 172
170 135 307 336 134 203 134 173 184 184 348 45 99 175 205 108 226 147 197 173 113 231 54 286 37 252 183 229 177 249 251 227 251 264 260 262 250 229 247 265 261 262 247 242 236 228 221 235 227 202 193 176 174 188 207 212 216 224 246 210 214 226 200 175 181 185 191 189 185 187 188 194 193 189 188 185 178 179 186 185 181 182 174 181 173 175
160 105 146 178 317 120 173 207 198 175 157 153 150 178 203 202 250 113 43 158 176 177 184 254 311 260 261 198 174 209 222 228 224 242 254 251 239 237 243 250 262 250 249 240 229 228 218 217 228 207 194 150 136 138 141 191 215 217 202 203 200 194 197 198 196 187 196 184 191 186 189 188 186 183 178 174 179 178 183 179 177 179 176 150 167 154
119 168 147 150 98 205 246 263 252 160 187 179 176 185 186 155 133 170 222 47 125 146 228 151 255 272 254 170 203 202 225 228 231 228 238 255 217 236 249 255 246 253 252 241 224 219 205 174 206 167 143 92 123 141 150 153 166 177 195 197 189 196 205 199 194 196 182 177 178 179 177 174 166 166 166 171 176 179 172 168 170 158 143 158 153 156
130 94 111 153 198 179 212 299 251 311 204 184 167 212 169 180 96 125 200 216 60 228 107 172 76 273 183 188 201 201 214 219 242 294 253 256 249 249 254 254 260 245 252 251 236 209 200 179 194 185 161 150 147 148 143 146 163 172 181 178 183 182 192 186 177 176 165 166 168 168 166 161 165 163 167 164 166 163 159 153 147 146 143 137 132 125
96 110 103 59 58 313 325 265 242 7 144 207 269 208 156 191 198 182 120 177 169 161 210 237 254 264 245 227 219 231 240 311 259 233 258 277 282 281 276 286 281 287 278 297 284 224 192 182 167 189 170 162 170 158 158 152 142 155 161 170 170 178 164 158 160 156 154 159 161 158 155 162 159 159 160 160 156 147 137 131 132 131 131 136 132 128
162 222 122 121 81 353 354 348 281 251 187 215 207 200 193 178 154 136 100 53 160 201 186 134 233 257 262 233 280 269 282 284 264 251 184 270 275 271 280 285 289 292 301 307 282 226 178 179 195 211 183 186 170 162 159 160 154 151 161 159 167 163 170 150 156 149 146 148 145 147 151 151 152 146 140 132 130 134 134 135 132 129 131 126 119 121
65 167 148 160 162 170 186 195 196 199 204 171 32 117 185 172 174 139 200 176 210 236 147 194 233 243 349 314 240 264 307 286 247 242 277 233 254 278 284 279 288 293 257 249 227 210 212 204 199 205 202 197 192 184 178 167 163 163 161 171 161 161 159 148 139 134 131 134 134 131 133 133 130 136 137 136 136 138 136 132 129 125 121 131 122 113
136 155 203 180 183 191 195 181 43 78 77 183 201 176 179 186 179 172 91 134 223 203 170 227 228 249 76 145 274 262 319 250 289 314 308 292 269 253 257 276 278 266 242 228 208 213 226 216 216 216 209 210 198 200 182 168 165 162 155 153 152 157 147 141 131 130 129 134 131 131 138 142 140 138 133 129 125 122 123 122 125 128 126 123 124 124
120 175 204 186 205 203 136 153 152 137 155 173 123 158 165 157 174 177 186 222 187 74 237 237 233 245 239 203 246 251 258 242 255 267 261 252 255 261 268 295 294 288 272 253 231 211 214 220 215 217 213 212 209 198 193 186 170 159 157 152 148 145 138 135 131 131 131 135 129 135 135 125 122 120 118 114 118 119 115 114 111 110 118 122 120 122
170 190 196 180 209 176 142 141 158 152 170 176 180 167 172 175 171 189 209 220 151 206 227 236 225 228 252 180 235 234 247 235 228 228 234 249 281 298 272 269 271 261 262 240 230 219 215 215 212 209 206 210 198 195 196 190 182 157 150 142 143 144 148 142 135 135 137 134 129 126 120 114 105 111 114 113 114 116 114 114 115 116 117 119 116 117
146 223 175 182 200 153 189 148 164 151 161 170 180 180 179 174 187 198 215 218 207 219 227 246 170 226 245 171 216 224 252 272 286 292 319 327 251 235 237 246 252 254 242 238 233 229 227 225 214 212 202 195 198 185 191 196 191 179 165 162 153 147 154 138 141 137 134 129 125 123 119 115 116 120 118 119 121 122 121 123 125 122 118 114 117 121
178 205 152 168 169 189 201 161 174 154 151 177 192 182 178 183 193 204 212 221 219 229 241 259 257 266 246 177 216 284 347 303 319 289 256 240 240 235 228 240 243 242 245 241 235 228 223 222 219 203 196 195 190 192 190 192 187 182 174 166 162 157 160 145 141 138 132 129 132 132 126 126 127 130 127 128 125 128 125 122 119 115 113 114 116 118
193 227 115 137 174 223 222 152 176 133 163 165 174 182 189 192 202 211 213 219 198 220 237 240 251 250 253 146 197 244 265 203 221 234 242 247 234 223 224 234 233 236 233 231 226 219 218 214 209 206 203 195 194 193 193 189 189 181 184 171 171 161 148 141 143 138 135 141 139 142 138 140 134 133 132 133 134 135 132 129 123 120 121 119 117 118
179 128 148 159 186 196 282 133 125 115 74 197 206 197 198 202 204 209 222 218 202 207 216 222 234 232 140 180 159 217 208 224 231 232 242 255 238 217 220 223 226 234 234 227 218 217 217 209 204 201 197 194 194 195 198 188 180 190 179 173 170 145 150 146 146 142 143 150 147 148 143 146 141 141 139 139 136 132 129 129 126 127 130 130 130 127
132 144 163 162 188 141 165 137 131 129 203 214 215 205 191 194 199 202 213 218 217 192 217 217 229 131 175 155 186 199 205 215 216 225 206 203 209 216 230 235 236 237 248 248 234 228 229 217 204 200 199 201 203 198 188 190 187 176 162 157 152 157 156 151 152 153 152 153 156 155 152 154 146 145 143 139 137 137 136 137 136 135 130 128 124 117
168 160 175 204 146 166 161 134 138 204 218 231 44 150 193 201 199 209 219 220 216 213 227 237 240 227 188 192 193 199 205 224 230 235 234 233 209 195 204 213 225 228 229 234 238 234 227 215 218 217 206 209 197 186 179 193 178 158 160 160 160 165 155 159 154 159 158 159 162 161 161 155 153 144 143 145 144 142 142 139 135 137 143 141 139 138
172 164 134 70 100 38 139 151 190 215 220 88 239 156 171 186 208 205 235 235 223 213 218 232 235 223 199 216 212 204 207 234 278 256 242 235 199 211 201 221 227 216 225 227 221 225 203 201 208 206 212 182 166 185 190 184 169 162 165 158 157 159 163 161 165 162 164 169 169 170 166 159 154 149 150 151 150 147 146 146 149 144 135 127 119 110
170 138 151 152 82 155 188 187 207 23 15 221 200 215 182 194 188 186 213 240 205 203 201 224 232 223 216 224 210 230 246 327 273 261 225 189 214 216 215 229 224 221 222 232 203 217 205 206 208 202 155 165 182 179 186 166 162 155 151 164 168 164 167 167 173 174 175 177 172 169 169 164 156 156 156 155 152 153 153 150 148 138 133 131 135 138
168 161 169 149 226 120 153 184 310 282 253 232 222 198 157 119 144 160 179 266 200 207 207 212 225 219 219 209 208 191 67 25 261 249 221 190 217 225 223 229 232 231 224 209 204 223 197 192 174 157 162 170 184 182 162 160 165 161 165 173 169 166 170 181 187 177 173 177 172 167 167 165 160 157 157 158 159 156 153 146 140 140 146 143 147 144
136 139 164 167 159 100 134 184 202 210 229 238 182 141 158 126 121 120 109 264 253 197 208 200 220 215 206 200 200 129 175 228 246 246 225 199 221 217 222 228 229 218 177 179 181 191 191 187 175 165 159 168 178 177 162 163 164 165 171 173 175 179 180 193 190 179 176 171 165 162 161 160 160 159 158 161 158 155 151 152 147 137 136 137 135 132
147 156 145 141 134 189 176 193 212 206 237 218 151 142 144 143 116 108 81 245 251 147 199 191 213 210 200 199 181 183 194 221 241 245 229 223 220 212 213 232 228 192 209 195 192 183 175 164 133 148 169 182 180 155 160 159 167 175 179 181 175 186 198 198 188 169 159 153 157 158 157 160 160 163 163 158 148 148 146 138 136 142 138 132 129 129
171 162 179 180 185 187 190 228 325 278 250 158 188 160 136 135 131 134 204 232 153 181 181 192 203 203 194 187 176 185 210 212 224 234 224 176 188 214 216 222 218 197 203 195 188 153 158 175 164 170 182 178 156 156 159 162 166 182 183 177 183 204 203 176 147 154 154 149 151 158 162 162 167 162 163 155 148 141 139 147 147 142 140 138 134 134
99 96 359 99 186 188 196 201 227 262 233 165 191 156 156 112 164 205 219 82 147 178 214 195 203 199 178 179 187 207 213 220 199 66 129 170 183 201 190 179 121 73 53 107 152 160 163 159 152 127 125 142 152 156 160 163 175 179 180 181 204 205 138 138 148 145 147 153 158 161 162 164 159 160 151 143 141 142 145 145 144 146 145 144 144 144
174 172 183 186 177 52 46 205 259 271 243 143 119 136 226 185 218 110 111 23 67 184 161 200 189 196 165 192 199 208 222 198 199 216 213 195 198 152 156 163 178 171 157 135 147 193 154 149 161 154 146 143 151 158 164 167 175 180 179 201 203 141 135 139 140 145 151 156 160 164 164 160 157 152 149 150 153 148 149 150 149 150 149 148 147 147
168 177 172 200 166 171 184 185 209 220 66 134 146 182 197 194 208 166 130 190 251 191 182 169 209 184 189 185 201 217 222 192 246 221 226 221 174 91 105 123 133 137 139 140 150 164 151 140 141 141 145 150 156 164 168 174 179 181 190 203 135 135 133 140 145 146 153 161 163 158 160 159 156 152 154 155 154 154 152 157 155 154 159 158 154 153
189 195 182 189 183 185 196 211 323 114 157 172 168 183 161 206 182 214 218 160 169 231 210 165 198 193 184 193 196 203 210 212 218 199 193 214 193 184 174 186 176 175 169 159 155 153 157 156 158 147 151 166 165 173 176 182 180 178 195 177 138 144 147 143 146 151 159 164 164 162 156 153 157 158 160 162 159 158 160 157 159 158 165 161 161 160
205 177 78 82 206 237 327 211 262 31 141 209 317 137 172 202 203 151 173 144 226 181 176 186 192 186 184 171 164 192 209 212 213 215 228 216 169 193 140 116 127 124 139 128 128 159 156 136 138 149 159 175 180 174 181 186 184 186 186 140 153 148 148 149 152 161 166 163 163 162 154 153 157 161 166 166 171 170 167 166 168 166 164 168 168 167
220 166 136 170 174 160 239 225 157 221 314 199 203 255 266 214 193 175 182 235 215 169 180 76 166 176 176 165 180 192 209 195 197 218 218 214 214 196 182 175 174 170 169 177 173 150 145 146 151 166 167 172 187 173 174 181 187 160 134 158 153 155 153 158 160 159 158 163 161 159 164 163 166 165 166 171 169 171 171 172 171 166 169 173 169 169
239 191 175 184 151 186 231 157 183 209 197 201 201 202 208 222 164 169 205 204 218 168 157 153 117 128 137 179 198 188 197 173 184 203 207 215 217 196 188 185 174 162 176 151 153 155 141 156 162 163 164 174 172 173 168 173 168 146 150 152 157 150 150 156 164 163 168 167 166 170 173 171 166 166 171 180 177 173 176 182 180 177 179 179 176 171
130 122 202 167 180 231 299 265 205 190 228 226 224 236 260 205 186 194 179 168 166 133 136 135 115 170 179 194 166 157 156 207 200 194 193 209 210 211 197 172 167 165 156 151 167 166 166 165 154 159 163 171 164 165 167 165 150 153 153 157 154 157 157 163 164 160 161 163 163 173 177 174 173 179 176 177 186 194 191 182 184 188 194 208 193 183
121 183 181 160 202 205 210 212 156 164 219 225 230 217 224 218 186 198 176 194 186 169 167 159 156 37 183 166 167 177 191 199 201 178 197 200 201 183 152 150 155 152 157 157 139 155 131 136 148 150 160 158 156 159 159 152 149 159 157 155 160 161 162 156 155 157 168 168 173 171 173 176 178 180 178 179 182 176 190 228 201 212 198 195 197 209
183 187 173 190 193 216 216 95 162 196 212 204 199 202 210 207 179 189 200 209 207 199 179 157 153 160 205 228 205 183 200 180 193 172 176 186 186 172 163 155 155 160 160 151 139 145 146 135 136 136 139 149 151 154 153 157 162 164 167 164 167 168 163 156 160 169 168 174 185 181 179 176 178 183 181 182 179 179 177 165 175 177 178 178 191 177